GFSNGP_850_rhum_315.txt.gz
RH
48 42 50 59 64 72 89 81 95 68 68 57 72 89 97 89 87 82 83 89 96 100 100 84 64 58 53 48 47 46 43 43 44 44 40 39 56 86 98 100 100 100 100 100
75 47 43 55 50 55 61 66 75 78 87 91 93 92 87 91 96 95 99 96 100 100 100 71 66 63 59 53 49 48 47 46 46 46 41 36 47 68 88 92 100 100 100 100
84 45 49 69 56 59 72 73 94 87 83 78 80 82 88 93 97 99 98 100 100 100 80 72 68 68 64 56 53 52 51 50 48 47 46 36 43 61 83 89 94 100 100 100
85 58 90 49 63 63 76 86 79 77 77 80 87 91 97 100 100 100 100 100 87 77 73 69 68 67 64 58 54 53 54 54 50 51 49 36 39 59 79 86 89 98 100 100
87 67 47 80 82 84 88 77 76 79 71 75 82 87 94 95 100 100 100 100 90 78 77 73 68 69 67 61 60 57 56 56 55 54 49 37 38 63 72 86 89 94 100 100
63 80 80 72 63 70 74 83 73 77 74 78 76 80 89 100 100 100 99 100 100 94 94 79 69 70 68 64 63 60 59 60 58 54 52 40 42 66 68 86 98 97 91 96
58 70 55 70 68 79 93 80 74 76 81 86 82 86 94 95 95 95 97 98 99 100 99 93 80 80 76 70 64 63 60 61 58 52 53 45 49 54 67 87 89 85 92 100
53 76 72 78 64 81 87 83 80 78 80 88 89 91 91 84 81 84 88 93 97 100 100 100 100 100 100 83 74 66 60 58 58 53 55 54 60 45 66 83 91 87 100 95
77 77 82 87 87 94 96 90 84 88 88 88 86 81 78 77 78 78 82 85 89 94 94 96 98 100 100 90 79 68 62 60 61 58 60 87 97 49 64 80 93 100 100 100
82 78 75 84 82 86 84 89 89 87 87 85 85 84 81 79 79 80 82 84 86 89 92 97 96 99 100 100 95 76 65 64 67 70 100 98 82 70 66 84 100 99 100 100
76 66 80 82 90 95 93 89 88 84 88 90 90 88 87 87 87 87 88 90 94 95 96 97 97 100 98 90 83 75 68 68 76 99 98 99 96 76 71 91 100 98 96 97
74 89 94 85 84 99 100 95 98 99 100 99 100 100 99 99 99 100 100 100 100 100 100 100 96 86 78 79 81 76 70 74 94 100 100 95 98 55 42 78 100 100 100 100
88 88 89 87 78 88 93 84 86 88 92 97 93 90 87 93 91 100 100 90 86 90 89 86 84 81 74 79 78 75 73 83 100 100 96 100 97 97 62 49 71 73 80 97
76 89 99 80 95 90 88 77 79 81 80 79 79 81 84 87 87 86 82 80 85 87 88 85 86 85 77 82 80 74 74 100 100 97 99 99 98 82 65 96 99 82 73 88
77 77 78 88 82 74 74 79 86 86 77 78 78 84 83 84 85 84 84 83 85 88 84 82 83 76 76 78 78 76 77 96 100 97 96 100 95 81 83 81 95 93 85 78
67 72 77 81 81 90 98 100 100 100 100 92 89 84 84 92 91 85 81 81 89 86 86 87 84 74 77 76 78 80 93 100 100 97 98 96 100 88 99 67 94 96 94 96
81 86 77 77 86 94 100 100 100 100 100 100 100 100 100 100 100 99 90 93 94 92 87 84 75 75 77 80 90 99 100 100 100 100 97 99 100 100 92 64 92 97 96 96
93 95 95 97 100 100 100 100 100 100 100 100 100 100 100 100 100 100 100 97 97 90 82 76 78 88 96 99 100 100 99 100 100 98 100 100 100 98 74 66 84 99 95 92
99 100 100 100 100 100 100 100 99 99 99 100 100 100 100 100 100 100 100 100 100 100 80 98 100 100 100 92 100 98 98 100 100 100 100 100 100 81 80 62 73 96 98 96
100 100 100 100 100 100 100 100 100 100 100 100 100 100 100 100 100 100 100 100 100 100 100 99 100 100 100 100 100 99 96 98 100 100 100 100 82 93 72 65 61 90 97 97
100 100 100 100 100 100 100 100 100 100 98 100 100 100 100 100 100 100 100 100 96 100 100 100 100 100 100 100 100 98 92 100 100 100 98 86 76 78 72 63 56 79 96 97
100 100 100 100 100 100 100 100 100 100 100 100 100 100 100 100 100 100 100 100 98 100 100 100 100 100 100 100 96 95 100 99 99 99 94 84 74 77 72 62 56 63 92 97
100 100 100 100 100 100 100 100 100 100 100 100 100 100 100 100 100 100 100 86 100 100 100 94 99 100 100 99 100 100 100 100 100 96 91 76 74 89 69 63 60 57 82 95
100 100 100 100 100 100 100 94 100 100 100 100 100 100 100 100 96 92 94 100 100 100 100 96 99 100 100 100 100 100 100 100 98 94 84 96 81 78 67 63 59 55 66 94
99 100 100 100 100 100 100 100 100 100 100 100 100 96 100 100 100 93 99 100 100 100 100 100 100 100 100 100 100 100 100 100 99 92 100 92 81 79 69 63 60 56 54 85
98 98 97 100 100 100 100 100 99 96 100 100 100 100 100 100 100 100 100 100 100 99 100 100 98 97 94 88 91 100 100 100 100 89 85 78 84 83 72 64 59 54 51 70
95 100 98 99 94 100 100 100 100 99 97 99 100 88 92 97 99 100 100 99 99 99 100 100 100 100 100 99 96 87 94 100 100 96 74 77 85 86 74 67 59 54 50 54

GFSNGP_850_rhum_318.txt.gz
RH
58 52 62 68 71 74 84 85 96 70 78 69 98 100 96 96 96 95 97 97 98 96 92 95 87 69 64 59 56 52 48 45 43 42 41 39 37 34 30 32 44 68 77 76
78 60 60 68 60 66 65 66 65 67 85 96 92 81 93 98 96 98 98 96 93 92 95 91 73 70 66 61 56 54 49 46 46 43 42 40 38 36 31 31 45 65 77 79
84 60 66 81 69 70 76 91 93 99 96 87 95 89 91 87 91 97 98 92 94 94 89 76 71 70 72 65 61 56 51 49 47 48 44 44 43 40 33 32 49 56 74 81
89 84 97 77 76 68 84 97 89 92 94 81 90 88 71 89 100 100 96 86 83 84 79 72 70 71 73 65 61 60 57 54 52 51 49 48 45 41 35 38 51 55 72 81
96 89 65 83 91 92 94 91 88 91 82 79 78 70 96 90 89 88 86 91 89 86 83 79 75 75 76 70 67 63 63 58 55 54 52 50 45 42 38 40 44 58 68 84
94 99 94 99 77 74 77 100 76 88 86 87 84 100 98 95 77 89 88 88 93 90 96 93 85 85 88 81 75 67 66 60 56 54 54 52 47 46 47 42 44 58 75 76
87 80 74 79 67 78 99 94 86 80 84 92 100 88 82 82 83 89 89 87 85 95 92 87 85 87 97 100 91 84 75 66 58 53 53 53 50 58 55 47 46 53 74 78
77 87 92 80 73 90 96 84 87 90 94 95 86 90 93 84 83 81 79 81 83 87 91 94 93 94 98 100 94 96 88 67 59 54 53 55 68 63 73 71 52 56 81 80
95 89 83 82 74 76 84 98 95 94 87 90 97 94 86 84 84 81 82 83 82 86 89 92 94 90 100 92 94 96 90 69 60 54 54 60 84 95 90 74 83 72 89 97
87 82 76 77 84 82 99 93 81 82 89 87 98 97 92 90 87 86 89 90 86 89 94 94 90 95 100 89 91 86 79 68 62 57 56 82 84 96 94 98 92 95 98 100
92 75 70 62 81 99 82 82 84 78 78 85 92 87 89 99 99 100 89 83 86 96 91 92 99 99 84 78 80 80 79 69 64 61 62 82 93 98 100 99 100 99 98 99
93 90 90 79 69 76 72 68 67 86 85 82 93 92 85 90 98 99 88 89 98 98 100 92 84 78 75 73 79 85 82 71 67 69 74 100 95 97 90 100 100 100 100 100
64 52 68 70 63 56 64 62 72 88 99 100 78 83 80 84 80 95 100 98 87 82 82 82 81 77 74 75 85 88 81 74 73 81 96 98 98 100 99 54 44 40 78 100
52 69 98 62 73 68 78 75 72 74 73 70 70 71 74 79 80 80 78 76 82 84 82 81 80 76 73 79 86 84 78 77 93 76 87 97 98 100 93 85 69 43 64 76
50 55 61 66 73 71 62 69 80 83 76 81 87 96 96 95 91 82 78 78 83 84 78 79 81 73 74 80 82 81 80 77 76 88 98 99 99 86 87 95 98 66 75 76
56 60 67 79 84 85 83 87 100 100 100 98 100 100 99 100 99 96 88 83 94 84 75 83 83 73 80 83 80 82 82 85 100 100 97 100 96 89 95 99 96 64 76 92
77 90 90 97 100 97 95 94 100 100 100 100 100 100 100 100 100 100 100 100 100 100 99 94 78 78 80 79 86 99 100 97 99 99 100 90 93 94 100 99 74 70 72 91
100 100 100 100 100 100 100 100 100 100 100 100 100 100 100 100 100 100 100 100 100 100 91 86 87 92 92 100 100 100 100 94 94 97 100 93 97 100 92 80 78 72 66 89
99 100 100 100 100 100 100 100 100 100 100 100 100 100 100 100 100 100 100 100 100 100 85 99 100 100 100 97 100 100 96 96 100 99 92 100 99 95 88 78 82 73 63 93
100 100 100 100 100 100 100 99 100 100 100 100 100 100 100 100 100 100 100 100 97 100 99 100 100 100 99 97 100 99 100 92 91 94 99 100 100 88 79 74 75 67 60 88
100 100 100 100 100 100 100 100 100 100 95 100 100 100 100 100 100 100 100 100 83 97 100 100 100 100 100 100 100 95 91 96 96 99 100 100 97 83 73 70 68 66 59 79
98 100 100 100 100 100 97 100 100 100 100 100 100 100 100 100 100 100 100 100 93 100 100 100 100 99 100 100 99 93 84 85 91 100 100 100 91 83 72 72 69 61 60 65
99 100 100 100 100 100 96 94 98 100 100 100 100 100 100 100 100 100 100 89 100 100 100 95 97 100 97 99 100 95 95 100 96 86 97 97 87 78 76 76 67 63 57 58
99 98 99 98 98 98 100 94 100 98 95 90 96 96 99 100 97 96 90 100 100 100 100 100 98 100 100 100 100 97 87 100 100 100 99 98 90 79 75 75 68 62 56 53
99 98 98 98 98 99 100 98 99 85 89 98 98 95 99 100 100 89 98 97 100 100 100 99 100 100 100 100 100 100 100 100 100 97 93 97 93 83 74 78 71 63 55 52
97 98 98 97 99 98 99 100 100 98 99 99 100 94 88 97 100 100 100 100 100 99 100 96 97 94 87 88 90 88 91 90 98 98 100 100 88 78 74 82 71 62 54 49
98 100 97 98 94 99 100 100 98 91 99 100 99 98 100 100 100 100 100 100 100 100 100 100 100 100 100 99 98 97 96 97 99 100 98 96 89 77 86 86 72 64 54 48

GFSNGP_850_rhum_324.txt.gz
RH
52 57 76 67 68 73 78 65 66 54 64 64 97 96 94 83 73 77 99 100 100 98 97 96 92 86 83 83 80 71 63 59 56 52 50 47 44 42 40 39 37 36 33 31
86 61 64 72 61 82 74 69 71 70 78 88 94 84 77 70 64 60 63 73 86 90 88 81 76 75 79 76 72 67 62 60 58 57 54 52 48 46 44 42 40 38 35 34
93 71 81 87 75 75 87 96 84 92 79 100 96 94 81 70 62 66 75 87 87 84 81 73 68 68 74 82 88 80 68 63 64 63 60 58 54 52 48 45 43 40 38 37
96 94 97 74 90 76 82 89 100 100 100 94 87 74 70 57 65 85 80 74 69 67 67 69 71 74 78 85 86 76 72 68 72 72 67 63 59 53 50 47 45 42 40 40
96 93 80 83 86 82 75 73 97 96 94 82 76 82 58 53 68 76 79 66 68 70 79 84 84 89 87 83 84 80 75 73 78 77 73 68 62 56 53 49 46 45 45 44
96 99 97 75 86 80 73 91 95 95 93 87 97 100 72 64 81 80 74 67 63 66 68 71 76 85 85 86 88 87 78 78 82 80 74 73 68 62 56 53 49 54 54 58
98 95 88 84 80 80 83 68 85 86 80 86 99 75 71 81 73 62 60 64 75 75 68 59 71 85 83 77 80 86 88 88 87 89 77 74 68 64 61 54 54 58 57 53
91 98 92 69 85 89 65 68 67 69 69 78 77 81 81 71 70 72 72 80 75 74 62 53 59 74 76 72 73 80 86 84 90 93 78 70 69 65 61 58 57 59 62 58
77 78 67 67 55 54 61 69 69 74 69 90 99 94 87 85 75 67 70 76 71 71 65 58 58 69 71 59 68 76 80 84 95 87 72 69 70 66 62 59 60 66 76 76
80 72 68 57 59 59 58 63 64 76 86 83 72 69 76 73 65 65 66 77 76 76 71 65 65 70 71 74 81 83 81 80 77 74 69 66 67 68 67 66 70 85 82 90
93 72 43 29 33 33 38 43 48 52 56 59 71 71 67 70 73 78 80 82 83 88 88 77 73 72 71 76 81 83 90 81 77 76 73 70 68 67 67 64 95 98 95 100
75 37 43 43 46 46 46 52 58 65 66 68 74 82 86 87 82 86 80 77 83 80 89 80 81 78 76 77 82 85 86 81 79 82 79 81 79 70 63 86 100 100 100 94
42 42 49 54 58 62 67 74 75 74 83 86 80 85 87 91 87 95 100 100 94 84 87 94 91 87 82 78 82 84 85 82 83 88 87 86 80 77 76 72 88 100 100 100
39 48 52 44 56 66 74 80 84 84 83 83 83 83 87 93 94 94 91 85 89 92 92 89 86 84 78 83 89 88 89 90 100 99 98 91 87 87 98 100 100 94 72 70
48 52 49 46 54 75 81 87 94 90 84 85 86 95 95 96 94 89 86 86 89 98 96 89 89 87 84 90 98 97 93 87 86 86 83 92 100 100 100 100 100 88 78 59
86 91 88 87 85 89 93 92 99 92 92 94 99 98 96 100 100 98 95 98 100 96 90 89 88 82 86 91 97 100 93 91 100 100 100 100 100 100 100 99 96 93 91 75
99 96 95 99 100 100 95 91 91 91 99 100 97 99 100 100 100 100 100 100 100 100 100 99 93 91 96 99 100 98 99 97 99 100 100 100 100 100 99 96 93 100 89 76
98 97 96 98 99 100 98 95 99 100 100 100 100 100 100 100 100 100 100 100 100 100 100 99 100 98 99 95 97 100 100 96 96 99 92 89 98 97 90 97 100 93 90 74
98 99 98 100 99 100 99 100 99 100 100 100 100 100 100 100 100 100 100 100 100 100 87 99 100 100 100 100 100 100 100 99 92 84 91 96 100 92 91 84 92 97 96 76
98 99 99 98 99 99 99 98 99 99 98 100 100 100 100 94 97 100 100 100 98 94 100 100 100 100 99 98 100 100 100 100 100 100 99 100 98 99 99 100 100 100 93 68
98 98 98 98 98 99 99 98 99 99 99 100 100 99 100 98 97 100 100 100 79 93 100 100 100 100 100 100 100 100 99 99 99 97 92 84 86 97 100 100 100 100 75 68
98 99 99 99 100 99 98 99 100 99 100 100 99 99 100 97 98 97 97 97 92 100 100 99 93 99 100 100 94 77 78 83 91 100 100 100 100 99 98 100 100 85 72 69
99 99 100 100 100 98 90 90 95 98 98 98 90 92 100 100 100 100 98 82 100 86 100 99 99 100 100 99 100 100 88 83 94 99 80 81 91 96 100 100 92 78 74 72
100 99 95 84 91 98 100 91 99 99 100 86 93 100 100 100 99 95 100 100 100 100 93 99 100 100 100 99 96 100 100 100 100 100 91 94 100 100 100 99 85 76 71 70
98 95 96 99 97 100 100 100 96 90 96 99 100 100 99 99 100 98 100 100 100 100 96 90 100 100 100 99 100 98 94 88 83 82 85 97 100 100 100 99 91 76 69 72
87 100 100 80 100 100 93 100 100 91 100 92 100 96 100 100 98 100 99 100 99 100 98 99 97 91 95 98 97 97 98 97 99 96 99 100 100 100 98 94 84 71 70 79
99 94 93 92 95 93 96 100 100 99 95 100 96 99 100 100 100 100 100 98 95 100 100 99 99 98 99 99 99 99 100 99 100 100 100 100 99 96 94 88 88 82 79 74

GFSNGP_850_rhum_330.txt.gz
RH
76 68 91 84 78 80 78 71 89 74 72 76 76 80 83 87 91 68 57 54 50 49 58 72 79 84 84 79 74 72 66 62 59 64 72 74 70 64 59 57 55 54 51 48
94 74 70 88 85 86 84 76 72 77 90 91 94 96 95 80 62 56 51 44 42 44 48 52 62 67 68 65 62 63 61 58 61 67 71 72 70 69 67 65 61 59 56 53
93 90 81 87 76 83 87 99 85 94 82 100 96 90 76 65 63 49 43 43 44 50 52 57 62 61 56 56 58 63 68 67 72 74 71 71 72 71 70 71 68 64 60 57
95 95 94 76 94 82 88 90 97 96 98 92 77 68 54 44 45 41 42 46 49 54 61 62 56 52 52 57 62 62 64 69 82 80 76 75 80 76 73 76 75 70 65 60
96 94 83 84 88 84 70 67 91 95 96 81 73 84 52 40 44 48 50 50 54 66 64 59 56 53 47 57 69 70 57 53 65 78 80 72 83 84 81 80 81 73 67 62
95 96 95 76 86 80 69 79 77 87 83 74 84 74 52 41 46 46 42 46 50 52 58 56 43 38 41 50 58 51 46 50 65 71 71 70 79 84 84 79 82 84 71 64
93 95 94 78 86 72 74 72 70 61 56 63 92 52 46 54 38 32 33 38 39 36 35 34 34 38 42 44 46 40 44 50 56 62 70 64 65 72 76 76 86 83 67 61
94 97 94 82 85 73 59 53 52 55 56 62 59 46 42 45 47 50 50 51 53 58 57 54 50 44 44 46 41 50 52 56 58 61 64 66 74 75 76 85 78 65 65 60
82 82 63 72 59 49 52 55 51 49 45 46 51 58 61 66 66 68 70 70 69 70 71 69 67 71 68 44 51 56 61 62 61 66 71 75 80 76 80 74 71 67 68 65
77 72 68 52 53 49 41 39 40 41 45 52 57 62 70 74 76 79 79 78 79 82 83 82 77 79 79 77 76 73 66 70 70 72 73 73 72 72 75 74 70 69 70 69
89 67 37 31 33 32 32 36 39 41 45 52 53 54 57 70 81 84 85 84 84 87 88 88 88 91 90 91 92 94 88 80 81 84 80 76 74 72 72 68 78 80 74 77
77 37 39 42 46 48 45 48 57 67 74 80 83 85 84 82 87 90 90 89 91 90 92 88 91 91 89 90 96 99 99 94 92 97 96 87 78 69 69 100 100 100 100 100
39 36 39 39 43 56 71 83 87 87 94 95 91 94 99 98 96 94 100 96 93 91 97 98 98 97 94 96 100 100 100 100 99 100 100 99 95 92 84 66 83 100 100 100
59 53 77 82 85 91 88 82 83 85 85 84 88 94 97 99 98 98 98 94 98 97 95 93 92 91 86 92 98 100 100 100 100 100 100 100 94 90 88 83 79 68 71 97
86 95 94 86 79 79 82 87 92 91 87 86 85 91 94 96 98 96 95 95 98 99 93 89 93 86 85 93 100 100 100 100 98 98 97 98 100 98 96 97 96 89 81 74
93 94 89 95 98 99 100 100 100 100 100 99 100 99 96 98 97 96 91 88 98 94 92 94 90 76 85 95 100 100 100 100 100 100 98 100 100 100 100 100 100 100 100 90
100 92 94 95 97 96 98 99 99 98 97 96 92 93 97 98 99 91 84 88 97 97 96 92 79 83 96 100 100 98 100 100 100 100 100 100 100 100 100 100 100 99 94 97
100 99 99 100 100 100 99 97 100 100 100 100 100 100 100 100 100 100 98 99 100 100 93 81 91 100 99 100 100 100 100 100 100 96 98 100 100 100 100 100 100 100 100 92
85 89 91 87 85 96 100 100 100 99 97 100 100 100 100 100 100 100 100 100 99 100 78 94 100 100 100 99 100 100 100 97 95 94 95 94 100 99 100 100 99 99 98 100
95 99 79 96 97 98 100 100 100 99 99 100 100 100 100 99 100 100 100 99 94 92 100 94 96 99 96 94 100 99 100 100 100 100 100 99 93 91 90 100 100 100 100 99
100 79 98 96 100 100 88 73 100 100 99 86 100 100 100 100 100 100 100 100 90 100 100 100 100 92 84 100 100 99 99 100 100 100 100 95 95 100 100 99 95 88 89 93
96 97 98 100 100 100 80 98 92 86 93 100 99 100 99 100 95 91 89 99 96 100 100 92 86 90 100 100 97 87 82 84 90 95 88 85 89 96 99 100 100 100 100 98
96 100 100 100 100 100 94 90 100 100 100 99 99 100 100 100 99 100 98 90 100 97 100 99 100 98 100 99 100 98 89 87 83 93 100 99 100 100 100 95 99 98 100 97
99 99 100 95 100 100 100 96 100 96 89 99 91 100 100 100 92 96 100 100 100 100 100 100 97 100 100 99 89 85 95 100 100 100 100 100 99 97 96 100 100 100 100 99
100 100 100 93 100 100 100 100 100 91 91 100 100 100 100 100 100 100 100 100 100 100 98 87 100 100 99 93 85 77 78 88 96 99 97 93 92 91 94 92 96 100 98 92
100 100 100 99 100 100 100 100 100 96 94 100 99 100 93 97 99 100 100 100 100 100 98 99 98 100 100 100 100 99 96 93 95 97 99 96 94 94 96 96 95 93 88 82
100 100 100 100 100 100 100 100 100 100 92 100 98 99 95 95 100 100 100 100 100 100 100 100 100 100 100 100 100 99 98 98 98 100 97 96 98 96 94 93 90 88 81 69

GFSNGP_850_rhum_333.txt.gz
RH
72 70 81 72 74 81 71 71 88 72 74 75 76 82 86 79 71 81 82 72 52 43 40 39 41 43 42 40 46 56 57 56 52 53 52 51 51 54 56 61 64 66 63 60
92 78 77 85 79 77 71 70 80 82 86 95 98 93 86 95 96 96 87 44 36 34 34 34 38 40 45 45 50 57 56 53 53 52 55 58 60 58 58 58 61 64 62 63
92 91 82 88 81 82 88 100 82 93 84 94 95 95 88 81 66 54 39 36 35 36 38 41 44 49 49 50 51 50 49 47 48 54 59 59 66 69 66 64 65 63 64 66
95 95 94 85 90 82 89 91 98 94 94 91 78 66 49 42 42 40 39 39 41 42 45 48 54 54 51 51 50 50 45 42 47 52 54 53 67 74 75 72 74 74 70 68
95 93 84 81 83 80 66 67 90 96 96 71 70 70 39 34 36 36 40 46 38 31 35 44 62 51 42 44 44 41 35 40 49 58 50 51 70 82 81 71 79 82 79 72
95 95 95 81 82 82 78 77 74 83 77 66 78 63 68 42 43 44 39 35 33 34 33 37 32 36 39 38 39 35 34 37 45 52 50 53 58 61 67 74 77 78 75 80
94 96 95 90 84 72 84 78 62 64 59 64 83 43 39 44 42 47 49 51 53 54 56 56 56 58 60 58 54 39 39 43 48 51 52 52 57 67 71 66 69 74 74 68
93 96 97 82 69 60 59 48 52 50 39 43 46 48 51 51 53 58 61 63 63 65 64 61 61 64 65 66 58 64 64 52 47 50 54 55 60 67 66 69 75 74 74 71
93 85 62 61 52 46 53 56 49 44 37 39 42 44 47 53 58 56 58 62 70 72 72 69 68 70 73 62 69 72 76 74 65 56 54 62 69 72 72 72 77 72 74 68
70 67 60 42 41 43 39 43 46 46 45 46 52 63 72 81 82 83 81 80 79 82 81 77 71 73 74 75 78 85 88 85 82 79 69 62 72 72 73 74 72 71 70 66
83 60 43 37 45 44 44 50 60 75 88 95 96 91 90 92 94 93 92 91 92 93 89 84 80 81 80 80 86 94 94 89 88 90 86 77 73 74 78 72 77 74 67 67
82 52 54 57 68 73 75 84 84 90 93 92 99 98 100 100 98 99 100 100 99 92 92 87 90 87 83 82 86 92 96 97 96 98 98 94 82 72 76 100 100 100 100 100
67 81 79 82 75 84 97 85 84 95 92 94 90 92 95 96 96 98 100 100 100 100 100 100 96 96 90 88 93 98 100 99 99 100 100 100 100 98 91 66 87 100 100 100
81 93 92 87 99 85 85 90 91 87 85 84 84 86 90 95 95 98 97 98 100 100 100 99 99 95 89 91 96 98 98 100 100 100 98 96 95 95 97 95 84 67 60 97
86 94 99 92 87 91 95 97 98 98 93 98 98 100 98 98 99 96 93 95 100 100 95 96 99 88 86 97 100 100 100 100 100 100 98 100 100 100 99 100 99 91 79 76
99 92 93 100 98 98 100 98 100 100 100 100 99 97 100 100 100 99 96 94 100 96 94 100 93 75 90 95 100 100 100 100 100 99 94 98 100 100 100 98 98 99 96 87
100 96 100 99 100 100 100 100 100 100 100 100 100 100 99 98 96 92 93 96 100 95 94 98 90 95 96 96 97 98 98 98 100 100 100 100 99 98 97 98 100 100 100 92
99 100 100 96 100 100 100 100 99 99 98 100 98 90 97 100 100 100 100 100 100 100 99 90 96 97 94 99 100 100 100 97 96 96 100 100 100 100 100 100 100 100 93 90
95 100 93 98 100 100 100 91 91 100 99 93 98 100 100 100 100 100 100 100 100 100 83 94 96 100 100 97 100 100 100 100 100 96 98 99 100 100 100 100 98 97 94 92
92 96 96 97 100 100 100 91 96 100 100 100 100 100 100 97 96 97 93 99 95 100 100 92 95 97 92 96 100 98 99 96 95 98 97 96 97 99 98 100 100 100 100 100
91 96 97 99 100 98 100 100 100 100 100 100 99 100 100 95 93 97 100 100 91 95 98 100 98 99 98 98 100 86 86 90 98 97 100 100 100 100 100 95 93 89 92 97
94 98 100 100 100 98 100 99 91 100 100 99 93 100 100 98 97 95 88 99 98 100 100 97 87 82 94 100 98 86 87 93 80 78 82 85 83 81 85 94 100 100 100 100
94 98 100 100 99 96 100 100 96 100 98 96 98 100 100 100 98 100 100 92 100 93 100 83 97 99 95 74 94 95 98 100 99 91 89 92 98 100 100 100 100 100 99 100
95 92 100 100 91 96 100 99 100 100 97 100 98 100 100 100 96 100 100 100 100 100 100 100 100 100 100 84 91 89 78 75 81 99 100 100 100 100 100 100 100 100 100 99
97 98 100 100 96 100 100 99 100 100 96 100 100 100 99 100 100 100 100 100 100 100 100 100 100 100 91 99 100 98 87 84 93 99 100 100 100 100 95 94 99 100 100 100
99 100 100 100 100 100 100 100 100 100 100 100 100 100 94 94 100 100 100 100 100 100 100 100 100 100 99 100 100 100 100 100 100 100 100 100 99 98 96 94 92 91 89 85
100 100 100 98 100 100 100 100 100 100 100 100 100 96 93 91 99 99 98 98 100 100 100 100 100 100 100 100 100 100 100 100 100 100 94 97 97 96 96 96 95 88 82 75

GFSNGP_850_rhum_339.txt.gz
RH
69 59 66 64 73 76 71 62 87 71 77 95 91 82 75 85 88 88 92 97 100 91 68 59 59 62 65 68 68 63 51 41 35 35 34 36 38 43 45 47 51 61 64 55
87 70 90 91 95 94 92 93 96 95 95 94 95 96 95 95 87 85 90 96 100 100 61 45 41 41 43 48 46 42 37 34 35 34 36 37 39 41 47 53 54 61 66 67
92 92 92 94 92 90 93 92 93 93 94 92 91 90 94 98 97 97 96 96 97 95 93 81 54 36 30 30 34 38 39 37 35 36 36 35 36 37 39 42 50 60 71 79
93 92 93 92 86 69 85 91 90 90 90 76 72 74 68 53 87 91 90 89 63 44 33 27 26 25 23 22 22 28 35 35 33 35 26 26 30 30 27 28 39 49 64 82
93 90 93 88 87 89 91 91 89 78 59 52 52 54 75 42 39 37 35 35 40 41 41 42 43 42 42 41 39 34 28 27 32 33 28 29 27 26 26 30 38 46 71 86
91 92 95 90 87 87 85 90 73 67 58 61 58 58 44 59 60 63 63 59 56 55 59 59 55 52 55 56 54 51 46 44 40 42 49 50 44 35 32 34 37 47 82 87
89 94 92 87 57 61 92 92 62 56 59 63 65 65 68 65 65 65 65 68 69 75 77 72 66 68 67 63 61 58 58 59 60 62 61 61 60 59 53 42 42 47 50 59
85 91 96 65 56 75 78 61 60 64 66 70 75 75 74 71 70 71 72 73 73 75 78 84 92 95 78 74 69 69 69 68 67 66 65 67 68 66 66 60 51 47 47 48
92 91 92 57 94 77 80 92 85 84 80 76 75 73 71 73 74 74 77 77 76 75 78 80 84 91 97 99 95 85 84 78 73 72 72 72 74 77 79 76 73 67 61 56
83 71 61 63 69 71 81 98 90 80 78 77 80 80 84 84 86 84 87 84 88 89 88 85 84 85 90 96 100 100 100 97 91 90 85 82 81 85 95 97 98 98 95 87
56 51 71 61 78 83 100 94 84 85 84 84 88 89 90 92 88 87 85 91 93 95 93 94 91 91 91 93 99 100 100 100 100 100 100 100 100 100 100 100 100 100 100 100
80 81 95 87 94 93 98 100 96 91 92 88 86 93 89 96 99 98 94 94 99 99 99 96 96 94 93 93 98 100 100 100 100 100 100 100 100 100 100 100 100 100 100 100
93 96 100 94 96 96 93 100 94 99 80 88 89 97 100 100 100 100 97 81 87 98 100 100 100 100 87 91 100 100 100 100 100 100 100 100 100 100 100 96 100 100 100 100
92 93 94 88 100 100 100 91 95 91 93 100 88 83 100 88 100 85 81 89 93 100 99 95 100 98 88 100 100 99 100 100 100 100 100 100 97 96 96 96 98 94 99 100
98 97 100 100 98 98 100 99 100 96 100 87 89 100 100 96 95 93 98 100 100 99 99 95 99 91 96 100 100 100 99 100 100 100 100 100 100 100 100 96 94 94 94 98
100 97 95 100 100 100 100 98 100 100 100 100 100 100 100 94 100 99 100 94 95 99 93 100 100 93 100 100 100 100 99 100 100 100 100 98 98 94 95 99 98 99 96 96
100 95 98 96 100 100 100 100 100 100 100 100 100 92 100 100 100 100 99 98 98 100 100 97 100 96 90 90 100 100 100 100 100 100 100 96 100 94 92 98 99 98 95 96
98 99 99 99 100 100 97 98 98 98 100 98 96 98 97 100 99 100 99 95 94 94 93 100 100 93 95 100 100 100 100 100 100 100 99 97 94 98 100 100 97 94 93 94
93 96 98 100 99 98 99 100 100 99 100 99 98 100 98 98 100 96 98 95 95 100 87 82 100 100 90 87 100 98 85 79 94 100 100 100 100 100 100 98 96 95 96 95
100 100 100 100 100 100 100 100 100 100 100 100 100 100 100 98 97 99 98 99 100 100 98 93 100 92 66 65 96 97 95 100 100 100 100 100 97 98 98 100 100 100 99 97
100 100 100 100 100 100 100 100 100 100 100 100 100 100 100 100 100 100 99 100 92 96 100 100 95 81 52 89 99 88 97 98 98 100 100 99 99 100 100 100 96 95 94 91
100 100 100 100 100 100 100 100 100 100 100 100 100 100 100 100 100 100 100 100 97 100 100 89 89 96 97 99 67 56 58 94 100 96 94 100 99 97 95 97 97 97 98 97
100 100 100 100 100 100 100 100 100 100 100 100 100 100 100 100 100 100 100 99 100 99 100 82 100 100 100 90 100 100 100 100 100 100 100 100 100 100 99 100 99 100 100 100
84 74 86 99 100 100 100 100 100 100 100 100 100 100 100 100 100 100 100 100 100 100 100 100 100 100 100 100 100 100 100 100 95 94 100 100 100 100 100 100 100 100 100 100
77 76 94 100 100 100 100 100 100 100 98 100 100 100 100 100 100 100 100 100 100 100 100 92 100 100 100 100 100 97 91 85 93 100 97 98 99 98 98 99 98 96 95 96
77 80 95 100 100 100 99 100 100 99 100 97 98 100 100 100 100 100 100 100 100 100 93 90 96 100 98 98 100 99 98 95 90 86 96 98 88 86 87 87 88 88 86 84
74 99 99 82 82 96 99 100 100 100 100 100 100 100 99 100 100 100 100 100 95 94 93 93 93 96 100 100 100 100 100 100 100 100 98 90 82 81 82 83 83 80 77 73

GFSNGP_850_rhum_342.txt.gz
RH
90 85 97 95 95 90 73 68 90 96 96 95 95 95 96 96 95 95 99 100 100 98 90 76 69 66 65 64 63 63 66 70 62 48 41 37 33 32 34 36 35 34 38 40
96 96 96 93 93 95 97 95 95 96 96 95 96 95 95 97 96 96 96 97 98 100 100 88 72 65 60 56 55 53 50 50 45 39 34 33 33 36 38 37 36 42 47 49
95 95 95 94 96 95 95 94 96 97 97 95 92 89 96 95 96 96 96 96 95 95 95 95 94 91 84 70 53 42 31 28 31 34 36 35 36 38 33 28 32 37 39 44
96 96 96 97 92 90 93 95 94 94 95 96 96 95 93 88 88 86 78 67 52 40 41 42 41 38 35 34 36 34 32 30 26 24 30 36 39 37 29 25 27 28 28 29
96 97 98 94 92 93 96 97 95 95 94 93 81 65 95 88 78 73 69 69 67 63 58 56 56 53 54 54 52 49 48 45 43 41 37 34 38 38 40 36 35 29 27 28
95 96 98 96 83 83 95 96 94 86 78 77 74 88 78 78 80 74 74 73 73 73 73 75 74 73 68 65 65 65 59 55 55 56 54 51 47 44 45 51 50 45 37 33
94 98 98 95 74 67 99 99 84 77 82 83 89 85 79 71 74 74 73 71 73 76 79 80 80 82 82 80 77 70 75 75 72 69 67 63 61 61 60 59 58 57 55 50
92 98 100 92 72 80 97 95 94 97 93 90 90 92 91 82 77 80 79 79 80 80 76 78 80 82 83 85 84 85 84 84 86 86 80 75 72 68 66 64 63 63 62 60
98 97 95 75 98 94 85 97 98 100 94 90 88 88 86 87 87 89 87 85 86 84 85 88 89 89 88 86 89 94 99 92 88 88 91 90 83 78 76 73 72 71 72 69
81 87 74 72 79 77 91 99 94 88 93 92 84 91 96 87 86 84 81 82 82 82 68 68 78 84 84 82 92 97 100 99 93 92 93 92 94 96 92 88 89 86 86 83
82 75 70 58 77 83 90 96 96 94 95 90 100 88 97 100 100 100 100 83 87 92 100 84 72 79 90 97 96 98 100 100 100 99 96 96 98 97 98 96 98 99 97 94
98 81 100 90 80 89 98 95 100 99 94 99 88 100 100 89 96 100 90 100 90 77 96 83 84 88 94 89 96 100 100 100 100 100 100 100 100 96 93 100 100 100 100 97
99 97 98 84 85 91 99 100 96 100 99 94 99 100 79 86 100 100 78 79 87 98 100 100 100 99 90 90 100 100 100 100 100 100 100 100 100 100 100 100 100 100 100 100
89 96 92 90 100 100 95 100 95 92 99 86 100 99 86 92 96 96 91 87 92 100 97 85 96 100 95 97 100 100 99 100 100 100 100 100 99 98 97 96 94 84 86 100
91 94 96 97 100 93 99 99 100 97 100 79 100 100 86 94 97 97 92 90 99 99 92 92 88 76 85 100 100 99 100 100 99 99 96 98 99 100 99 100 100 100 92 90
98 97 97 98 100 98 100 100 100 99 100 86 100 96 88 92 100 99 89 92 100 100 95 92 97 99 99 100 97 92 91 100 100 99 99 100 100 100 99 95 92 94 96 94
100 99 100 100 100 100 96 100 93 100 96 100 100 100 90 99 100 99 93 100 94 98 86 87 98 98 83 90 99 100 99 91 97 100 100 100 100 100 96 100 100 94 88 89
97 98 100 99 100 100 100 100 100 100 100 98 100 94 93 100 100 95 100 91 99 85 88 80 77 88 100 94 93 87 80 85 86 81 77 82 91 90 94 98 100 100 94 84
93 98 97 100 100 100 98 100 99 100 98 96 100 100 98 100 99 100 95 100 92 98 81 84 100 100 72 79 97 98 100 100 100 100 100 100 100 100 100 100 100 98 95 92
82 85 95 100 100 100 100 98 100 100 99 100 100 100 100 100 100 100 100 98 99 93 97 100 100 96 90 86 78 100 100 100 100 95 99 100 94 92 87 97 100 100 99 99
81 84 87 92 97 98 99 100 100 100 100 100 100 100 100 97 100 100 100 100 87 92 100 100 100 99 99 100 99 99 73 64 89 100 97 90 78 84 99 100 100 96 85 81
83 87 91 88 96 93 98 100 100 100 100 100 100 100 97 100 100 100 100 100 98 100 100 100 80 89 100 88 74 94 93 94 100 99 100 100 92 81 83 90 90 88 88 90
82 87 88 83 91 94 100 100 100 100 100 100 100 99 100 100 100 100 100 93 100 98 100 85 100 100 100 82 87 100 98 95 100 100 100 100 100 98 92 95 94 93 94 98
76 76 74 77 84 94 99 90 95 100 100 100 98 100 100 100 100 97 100 100 100 100 100 100 100 100 100 88 94 95 94 85 80 85 89 100 100 100 100 100 100 100 100 100
76 67 75 86 94 98 96 96 98 100 100 94 97 100 100 100 100 100 100 100 100 100 100 87 99 100 95 97 99 99 100 100 99 100 100 94 89 85 88 92 99 99 99 98
59 64 78 88 91 91 97 100 100 100 100 100 91 100 100 99 95 100 100 100 98 92 88 91 91 95 98 99 100 100 100 100 100 98 100 97 93 90 92 89 87 83 83 86
54 83 76 68 56 73 86 100 100 99 100 98 100 100 99 92 96 100 99 90 88 86 92 94 97 98 99 98 90 100 100 100 100 100 100 100 96 92 85 77 76 77 75 72